When you browse on this site, cookies collect data to enhance your experience and personalize the content and advertising you see.
Visit our Privacy Policy to learn more. By continuing to use the site, you agree to this use of cookies and data.
  • In Sweden
  • List of Countries
  • For 7 days
  • Water Temperature
  • Weather Map
  • Weather Widgets
  • user-avatar
    Login

    Hourly Weather Banamba

    Today, 7 June, Sunday

    Time Temperature Precipitation Wind Pressure Humidity
    00:00 +32°C° 0 mm 2 mps 726 mmHg 40%
    01:00 +32°C° 0 mm 2 mps 726 mmHg 38%
    02:00 +32°C° 0 mm 2 mps 726 mmHg 37%
    03:00 +32°C° 0 mm 2 mps 725 mmHg 36%
    04:00 +31°C° 0 mm 2 mps 725 mmHg 38%
    05:00 +31°C° 0 mm 2 mps 725 mmHg 39%
    06:00 +31°C° 0 mm 3 mps 725 mmHg 41%
    07:00 +33°C° 0 mm 3 mps 726 mmHg 40%
    08:00 +35°C° 0 mm 4 mps 726 mmHg 39%
    09:00 +36°C° 0 mm 4 mps 727 mmHg 38%
    10:00 +37°C° 0 mm 4 mps 727 mmHg 34%
    11:00 +40°C° 0 mm 4 mps 727 mmHg 30%
    12:00 +40°C° 0 mm 3 mps 727 mmHg 26%
    13:00 +42°C° 0 mm 3 mps 726 mmHg 24%
    14:00 +43°C° 0 mm 3 mps 726 mmHg 21%
    15:00 +43°C° 0 mm 3 mps 725 mmHg 19%
    16:00 +43°C° 0 mm 3 mps 725 mmHg 19%
    17:00 +43°C° 0 mm 4 mps 725 mmHg 20%
    18:00 +42°C° 0 mm 4 mps 725 mmHg 20%
    19:00 +41°C° 0 mm 4 mps 725 mmHg 24%
    20:00 +40°C° 0 mm 4 mps 725 mmHg 27%
    21:00 +38°C° 0 mm 4 mps 725 mmHg 30%
    22:00 +37°C° 0 mm 4 mps 725 mmHg 32%
    23:00 +37°C° 0 mm 4 mps 726 mmHg 34%

    Tomorrow, 8 June, Monday

    Time Temperature Precipitation Wind Pressure Humidity
    00:00 +36°C° 0 mm 4 mps 726 mmHg 36%
    01:00 +35°C° 0 mm 5 mps 725 mmHg 41%
    02:00 +34°C° 0 mm 5 mps 725 mmHg 45%
    03:00 +33°C° 0 mm 6 mps 725 mmHg 50%
    04:00 +32°C° 0 mm 5 mps 725 mmHg 52%
    05:00 +32°C° 0 mm 5 mps 725 mmHg 55%
    06:00 +30°C° 0 mm 4 mps 726 mmHg 58%
    07:00 +33°C° 0 mm 4 mps 726 mmHg 53%
    08:00 +34°C° 0 mm 4 mps 726 mmHg 49%
    09:00 +35°C° 0 mm 5 mps 727 mmHg 45%
    10:00 +37°C° 0 mm 4 mps 726 mmHg 40%
    11:00 +38°C° 0 mm 4 mps 726 mmHg 35%
    12:00 +41°C° 0 mm 4 mps 726 mmHg 30%
    13:00 +42°C° 0 mm 3 mps 725 mmHg 28%
    14:00 +41°C° 0 mm 2 mps 725 mmHg 25%
    15:00 +42°C° 0 mm 1 mps 724 mmHg 22%
    16:00 +40°C° 0.2 mm 3 mps 724 mmHg 27%
    17:00 +39°C° 0.2 mm 5 mps 723 mmHg 32%
    18:00 +37°C° 0.2 mm 8 mps 723 mmHg 37%
    19:00 +35°C° 0.8 mm 7 mps 724 mmHg 40%
    20:00 +33°C° 0.8 mm 7 mps 725 mmHg 43%
    21:00 +30°C° 0.8 mm 6 mps 726 mmHg 46%
    22:00 +30°C° 0.8 mm 5 mps 725 mmHg 46%
    23:00 +32°C° 0.8 mm 4 mps 725 mmHg 47%

    Day after tomorrow, 9 June, Tuesday

    Time Temperature Precipitation Wind Pressure Humidity
    00:00 +31°C° 0.8 mm 3 mps 725 mmHg 47%
    01:00 +30°C° 0.1 mm 3 mps 725 mmHg 48%
    02:00 +30°C° 0.1 mm 3 mps 725 mmHg 49%
    03:00 +30°C° 0.1 mm 4 mps 724 mmHg 51%
    04:00 +30°C° 0.3 mm 4 mps 724 mmHg 53%
    05:00 +29°C° 0.3 mm 4 mps 724 mmHg 55%
    06:00 +29°C° 0.3 mm 5 mps 724 mmHg 57%
    07:00 +30°C° 0 mm 5 mps 725 mmHg 54%
    08:00 +32°C° 0 mm 5 mps 725 mmHg 50%
    09:00 +34°C° 0 mm 5 mps 726 mmHg 47%
    10:00 +35°C° 0 mm 5 mps 726 mmHg 42%
    11:00 +38°C° 0 mm 6 mps 726 mmHg 38%
    12:00 +39°C° 0 mm 6 mps 726 mmHg 34%
    13:00 +40°C° 0 mm 5 mps 725 mmHg 32%
    14:00 +41°C° 0 mm 4 mps 725 mmHg 30%
    15:00 +42°C° 0 mm 3 mps 724 mmHg 28%
    16:00 +39°C° 0.5 mm 5 mps 723 mmHg 36%
    17:00 +36°C° 0.5 mm 6 mps 723 mmHg 43%
    18:00 +34°C° 0.5 mm 8 mps 722 mmHg 51%
    19:00 +34°C° 0.3 mm 6 mps 723 mmHg 48%
    20:00 +34°C° 0.3 mm 5 mps 725 mmHg 45%
    21:00 +34°C° 0.3 mm 3 mps 726 mmHg 43%
    22:00 +32°C° 1.2 mm 4 mps 726 mmHg 46%
    23:00 +30°C° 1.2 mm 4 mps 726 mmHg 50%

    10 June, Wednesday

    Time Temperature Precipitation Wind Pressure Humidity
    00:00 +28°C° 1.2 mm 5 mps 726 mmHg 53%
    01:00 +28°C° 0.1 mm 5 mps 725 mmHg 55%
    02:00 +28°C° 0.1 mm 4 mps 724 mmHg 57%
    03:00 +28°C° 0.1 mm 4 mps 724 mmHg 59%
    04:00 +27°C° 0.3 mm 4 mps 724 mmHg 60%
    05:00 +27°C° 0.3 mm 4 mps 724 mmHg 62%
    06:00 +27°C° 0.3 mm 4 mps 725 mmHg 64%
    07:00 +28°C° 0.5 mm 4 mps 726 mmHg 62%
    08:00 +29°C° 0.5 mm 4 mps 726 mmHg 59%
    09:00 +30°C° 0.5 mm 4 mps 727 mmHg 56%
    10:00 +33°C° 0.2 mm 4 mps 727 mmHg 50%
    11:00 +34°C° 0.2 mm 3 mps 727 mmHg 45%
    12:00 +36°C° 0.2 mm 3 mps 727 mmHg 39%
    13:00 +37°C° 0 mm 3 mps 726 mmHg 37%
    14:00 +38°C° 0 mm 3 mps 725 mmHg 34%
    15:00 +39°C° 0 mm 3 mps 725 mmHg 32%
    16:00 +39°C° 0 mm 3 mps 724 mmHg 32%
    17:00 +39°C° 0 mm 3 mps 724 mmHg 31%
    18:00 +39°C° 0 mm 3 mps 724 mmHg 31%
    19:00 +38°C° 0 mm 2 mps 724 mmHg 33%
    20:00 +37°C° 0 mm 2 mps 725 mmHg 35%
    21:00 +36°C° 0 mm 2 mps 725 mmHg 38%
    22:00 +36°C° 0 mm 2 mps 726 mmHg 40%
    23:00 +35°C° 0 mm 3 mps 726 mmHg 42%

    11 June, Thursday

    Time Temperature Precipitation Wind Pressure Humidity
    00:00 +34°C° 0 mm 4 mps 726 mmHg 44%
    01:00 +33°C° 0 mm 3 mps 725 mmHg 47%
    02:00 +33°C° 0 mm 3 mps 725 mmHg 50%
    03:00 +31°C° 0 mm 3 mps 725 mmHg 52%
    04:00 +31°C° 0 mm 3 mps 725 mmHg 54%
    05:00 +30°C° 0 mm 3 mps 725 mmHg 55%
    06:00 +30°C° 0 mm 2 mps 725 mmHg 57%
    07:00 +31°C° 0 mm 3 mps 726 mmHg 52%
    08:00 +34°C° 0 mm 4 mps 726 mmHg 46%
    09:00 +35°C° 0 mm 4 mps 727 mmHg 41%
    10:00 +37°C° 0 mm 4 mps 726 mmHg 38%
    11:00 +38°C° 0 mm 4 mps 726 mmHg 34%
    12:00 +39°C° 0 mm 3 mps 726 mmHg 30%
    13:00 +40°C° 0 mm 2 mps 725 mmHg 28%
    14:00 +41°C° 0 mm 2 mps 725 mmHg 25%
    15:00 +42°C° 0 mm 1 mps 724 mmHg 23%
    16:00 +42°C° 0 mm 1 mps 724 mmHg 22%
    17:00 +42°C° 0 mm 1 mps 724 mmHg 22%
    18:00 +42°C° 0 mm 1 mps 724 mmHg 21%
    19:00 +40°C° 0 mm 2 mps 724 mmHg 26%
    20:00 +39°C° 0 mm 3 mps 724 mmHg 31%
    21:00 +37°C° 0 mm 4 mps 724 mmHg 35%
    22:00 +37°C° 0 mm 4 mps 724 mmHg 37%
    23:00 +37°C° 0 mm 4 mps 725 mmHg 38%

    12 June, Friday

    Time Temperature Precipitation Wind Pressure Humidity
    00:00 +36°C° 0 mm 3 mps 725 mmHg 40%
    01:00 +35°C° 0 mm 3 mps 725 mmHg 42%
    02:00 +35°C° 0 mm 3 mps 724 mmHg 44%
    03:00 +34°C° 0 mm 4 mps 724 mmHg 46%
    04:00 +34°C° 0 mm 3 mps 724 mmHg 48%
    05:00 +33°C° 0 mm 3 mps 724 mmHg 50%
    06:00 +31°C° 0 mm 3 mps 724 mmHg 52%
    07:00 +34°C° 0 mm 3 mps 724 mmHg 48%
    08:00 +35°C° 0 mm 4 mps 725 mmHg 45%
    09:00 +36°C° 0 mm 4 mps 726 mmHg 42%
    10:00 +38°C° 0 mm 4 mps 725 mmHg 37%
    11:00 +40°C° 0 mm 4 mps 725 mmHg 32%
    12:00 +42°C° 0 mm 4 mps 725 mmHg 28%
    13:00 +42°C° 0 mm 4 mps 724 mmHg 25%
    14:00 +43°C° 0 mm 3 mps 723 mmHg 22%
    15:00 +44°C° 0 mm 3 mps 723 mmHg 20%
    16:00 +44°C° 0 mm 3 mps 722 mmHg 19%
    17:00 +44°C° 0 mm 3 mps 722 mmHg 17%
    18:00 +44°C° 0 mm 3 mps 722 mmHg 16%
    19:00 +42°C° 0 mm 2 mps 722 mmHg 19%
    20:00 +41°C° 0 mm 2 mps 722 mmHg 21%
    21:00 +40°C° 0 mm 1 mps 722 mmHg 23%
    22:00 +39°C° 0 mm 3 mps 722 mmHg 27%
    23:00 +38°C° 0 mm 4 mps 723 mmHg 32%
    Show more